Year,Month,Day,Hour,Minute,Value (Times are PST for temperature in C)
2018,05,23,00,00,14.60
2018,05,23,00,01,14.60
2018,05,23,00,02,14.60
2018,05,23,00,03,14.60
2018,05,23,00,04,14.50
2018,05,23,00,05,14.50
2018,05,23,00,06,14.50
2018,05,23,00,07,14.50
2018,05,23,00,08,14.50
2018,05,23,00,09,14.50
2018,05,23,00,10,14.50
2018,05,23,00,11,14.40
2018,05,23,00,12,14.40
2018,05,23,00,13,14.40
2018,05,23,00,14,14.40
2018,05,23,00,15,14.40
2018,05,23,00,16,14.40
2018,05,23,00,17,14.40
2018,05,23,00,18,14.40
2018,05,23,00,19,14.40
2018,05,23,00,20,14.40
2018,05,23,00,21,14.40
2018,05,23,00,22,14.40
2018,05,23,00,23,14.40
2018,05,23,00,24,14.40
2018,05,23,00,25,14.40
2018,05,23,00,26,14.30
2018,05,23,00,27,14.30
2018,05,23,00,28,14.30
2018,05,23,00,29,14.30
2018,05,23,00,30,14.30
2018,05,23,00,31,14.30
2018,05,23,00,32,14.30
2018,05,23,00,33,14.30
2018,05,23,00,34,14.30
2018,05,23,00,35,14.30
2018,05,23,00,36,14.30
2018,05,23,00,37,14.30
2018,05,23,00,38,14.30
2018,05,23,00,39,14.30
2018,05,23,00,40,14.30
2018,05,23,00,41,14.30
2018,05,23,00,42,14.30
2018,05,23,00,43,14.30
2018,05,23,00,44,14.30
2018,05,23,00,45,14.30
2018,05,23,00,46,14.30
2018,05,23,00,47,14.30
2018,05,23,00,48,14.30
2018,05,23,00,49,14.30
2018,05,23,00,50,14.30
2018,05,23,00,51,14.30
2018,05,23,00,52,14.30
2018,05,23,00,53,14.30
2018,05,23,00,54,14.30
2018,05,23,00,55,14.30
2018,05,23,00,56,14.30
2018,05,23,00,57,14.30
2018,05,23,00,58,14.30
2018,05,23,00,59,14.30
2018,05,23,01,00,14.20
2018,05,23,01,01,14.20
2018,05,23,01,02,14.20
2018,05,23,01,03,14.20
2018,05,23,01,04,14.20
2018,05,23,01,05,14.20
2018,05,23,01,06,14.10
2018,05,23,01,07,14.10
2018,05,23,01,08,14.10
2018,05,23,01,09,14.10
2018,05,23,01,10,14.10
2018,05,23,01,11,14.10
2018,05,23,01,12,14.10
2018,05,23,01,13,14.10
2018,05,23,01,14,14.10
2018,05,23,01,15,14.10
2018,05,23,01,16,14.10
2018,05,23,01,17,14.10
2018,05,23,01,18,14.20
2018,05,23,01,19,14.20
2018,05,23,01,20,14.20
2018,05,23,01,21,14.20
2018,05,23,01,22,14.30
2018,05,23,01,23,14.30
2018,05,23,01,24,14.30
2018,05,23,01,25,14.20
2018,05,23,01,26,14.20
2018,05,23,01,27,14.30
2018,05,23,01,28,14.20
2018,05,23,01,29,14.20
2018,05,23,01,30,14.20
2018,05,23,01,31,14.20
2018,05,23,01,32,14.20
2018,05,23,01,33,14.10
2018,05,23,01,34,14.10
2018,05,23,01,35,14.20
2018,05,23,01,36,14.20
2018,05,23,01,37,14.20
2018,05,23,01,38,14.10
2018,05,23,01,39,14.10
2018,05,23,01,40,14.10
2018,05,23,01,41,14.10
2018,05,23,01,42,14.10
2018,05,23,01,43,14.20
2018,05,23,01,44,14.20
2018,05,23,01,45,14.20
2018,05,23,01,46,14.20
2018,05,23,01,47,14.20
2018,05,23,01,48,14.30
2018,05,23,01,49,14.30
2018,05,23,01,50,14.30
2018,05,23,01,51,14.30
2018,05,23,01,52,14.30
2018,05,23,01,53,14.30
2018,05,23,01,54,14.30
2018,05,23,01,55,14.30
2018,05,23,01,56,14.20
2018,05,23,01,57,14.20
2018,05,23,01,58,14.20
2018,05,23,01,59,14.20
2018,05,23,02,00,14.20
2018,05,23,02,01,14.20
2018,05,23,02,02,14.20
2018,05,23,02,03,14.20
2018,05,23,02,04,14.10
2018,05,23,02,05,14.10
2018,05,23,02,06,14.10
2018,05,23,02,07,14.10
2018,05,23,02,08,14.20
2018,05,23,02,09,14.20
2018,05,23,02,10,14.30
2018,05,23,02,11,14.30
2018,05,23,02,12,14.30
2018,05,23,02,13,14.40
2018,05,23,02,14,14.40
2018,05,23,02,15,14.40
2018,05,23,02,16,14.40
2018,05,23,02,17,14.50
2018,05,23,02,18,14.50
2018,05,23,02,19,14.40
2018,05,23,02,20,14.40
2018,05,23,02,21,14.40
2018,05,23,02,22,14.40
2018,05,23,02,23,14.40
2018,05,23,02,24,14.30
2018,05,23,02,25,14.20
2018,05,23,02,26,14.20
2018,05,23,02,27,14.20
2018,05,23,02,28,14.20
2018,05,23,02,29,14.10
2018,05,23,02,30,14.10
2018,05,23,02,31,14.10
2018,05,23,02,32,14.00
2018,05,23,02,33,14.00
2018,05,23,02,34,14.00
2018,05,23,02,35,14.00
2018,05,23,02,36,14.00
2018,05,23,02,37,14.00
2018,05,23,02,38,14.00
2018,05,23,02,39,14.10
2018,05,23,02,40,14.10
2018,05,23,02,41,14.20
2018,05,23,02,42,14.20
2018,05,23,02,43,14.30
2018,05,23,02,44,14.30
2018,05,23,02,45,14.30
2018,05,23,02,46,14.30
2018,05,23,02,47,14.30
2018,05,23,02,48,14.30
2018,05,23,02,49,14.30
2018,05,23,02,50,14.20
2018,05,23,02,51,14.20
2018,05,23,02,52,14.20
2018,05,23,02,53,14.10
2018,05,23,02,54,14.10
2018,05,23,02,55,14.10
2018,05,23,02,56,14.00
2018,05,23,02,57,14.00
2018,05,23,02,58,14.00
2018,05,23,02,59,13.90
2018,05,23,03,00,13.90
2018,05,23,03,01,13.80
2018,05,23,03,02,13.80
2018,05,23,03,03,13.80
2018,05,23,03,04,13.70
2018,05,23,03,05,13.70
2018,05,23,03,06,13.60
2018,05,23,03,07,13.60
2018,05,23,03,08,13.60
2018,05,23,03,09,13.50
2018,05,23,03,10,13.50
2018,05,23,03,11,13.40
2018,05,23,03,12,13.40
2018,05,23,03,13,13.30
2018,05,23,03,14,13.30
2018,05,23,03,15,13.30
2018,05,23,03,16,13.30
2018,05,23,03,17,13.30
2018,05,23,03,18,13.20
2018,05,23,03,19,13.20
2018,05,23,03,20,13.20
2018,05,23,03,21,13.20
2018,05,23,03,22,13.20
2018,05,23,03,23,13.20
2018,05,23,03,24,13.20
2018,05,23,03,25,13.20
2018,05,23,03,26,13.20
2018,05,23,03,27,13.20
2018,05,23,03,28,13.20
2018,05,23,03,29,13.20
2018,05,23,03,30,13.20
2018,05,23,03,31,13.10
2018,05,23,03,32,13.10
2018,05,23,03,33,13.10
2018,05,23,03,34,13.10
2018,05,23,03,35,13.00
2018,05,23,03,36,13.00
2018,05,23,03,37,13.00
2018,05,23,03,38,13.00
2018,05,23,03,39,13.00
2018,05,23,03,40,13.00
2018,05,23,03,41,13.00
2018,05,23,03,42,13.00
2018,05,23,03,43,13.00
2018,05,23,03,44,12.90
2018,05,23,03,45,12.90
2018,05,23,03,46,12.90
2018,05,23,03,47,12.90
2018,05,23,03,48,12.90
2018,05,23,03,49,12.90
2018,05,23,03,50,12.90
2018,05,23,03,51,12.90
2018,05,23,03,52,12.90
2018,05,23,03,53,12.90
2018,05,23,03,54,12.90
2018,05,23,03,55,12.90
2018,05,23,03,56,12.90
2018,05,23,03,57,13.00
2018,05,23,03,58,13.00
2018,05,23,03,59,13.10
2018,05,23,04,00,13.10
2018,05,23,04,01,13.10
2018,05,23,04,02,13.10
2018,05,23,04,03,13.20
2018,05,23,04,04,13.20
2018,05,23,04,05,13.20
2018,05,23,04,06,13.30
2018,05,23,04,07,13.30
2018,05,23,04,08,13.30
2018,05,23,04,09,13.40
2018,05,23,04,10,13.40
2018,05,23,04,11,13.40
2018,05,23,04,12,13.40
2018,05,23,04,13,13.40
2018,05,23,04,14,13.50
2018,05,23,04,15,13.50
2018,05,23,04,16,13.50
2018,05,23,04,17,13.50
2018,05,23,04,18,13.60
2018,05,23,04,19,13.60
2018,05,23,04,20,13.60
2018,05,23,04,21,13.50
2018,05,23,04,22,13.50
2018,05,23,04,23,13.50
2018,05,23,04,24,13.50
2018,05,23,04,25,13.50
2018,05,23,04,26,13.50
2018,05,23,04,27,13.50
2018,05,23,04,28,13.50
2018,05,23,04,29,13.50
2018,05,23,04,30,13.60
2018,05,23,04,31,13.60
2018,05,23,04,32,13.70
2018,05,23,04,33,13.70
2018,05,23,04,34,13.70
2018,05,23,04,35,13.70
2018,05,23,04,36,13.70
2018,05,23,04,37,13.80
2018,05,23,04,38,13.80
2018,05,23,04,39,13.80
2018,05,23,04,40,13.80
2018,05,23,04,41,13.80
2018,05,23,04,42,13.90
2018,05,23,04,43,13.90
2018,05,23,04,44,13.90
2018,05,23,04,45,13.90
2018,05,23,04,46,13.80
2018,05,23,04,47,13.80
2018,05,23,04,48,13.80
2018,05,23,04,49,13.80
2018,05,23,04,50,13.70
2018,05,23,04,51,13.70
2018,05,23,04,52,13.60
2018,05,23,04,53,13.60
2018,05,23,04,54,13.50
2018,05,23,04,55,13.50
2018,05,23,04,56,13.50
2018,05,23,04,57,13.40
2018,05,23,04,58,13.40
2018,05,23,04,59,13.40
2018,05,23,05,00,13.40
2018,05,23,05,01,13.40
2018,05,23,05,02,13.40
2018,05,23,05,03,13.40
2018,05,23,05,04,13.40
2018,05,23,05,05,13.40
2018,05,23,05,06,13.40
2018,05,23,05,07,13.40
2018,05,23,05,08,13.40
2018,05,23,05,09,13.50
2018,05,23,05,10,13.50
2018,05,23,05,11,13.50
2018,05,23,05,12,13.50
2018,05,23,05,13,13.50
2018,05,23,05,14,13.50
2018,05,23,05,15,13.50
2018,05,23,05,16,13.50
2018,05,23,05,17,13.40
2018,05,23,05,18,13.40
2018,05,23,05,19,13.40
2018,05,23,05,20,13.40
2018,05,23,05,21,13.40
2018,05,23,05,22,13.40
2018,05,23,05,23,13.40
2018,05,23,05,24,13.40
2018,05,23,05,25,13.40
2018,05,23,05,26,13.40
2018,05,23,05,27,13.40
2018,05,23,05,28,13.40
2018,05,23,05,29,13.40
2018,05,23,05,30,13.40
2018,05,23,05,31,13.40
2018,05,23,05,32,13.40
2018,05,23,05,33,13.40
2018,05,23,05,34,13.40
2018,05,23,05,35,13.40
2018,05,23,05,36,13.30
2018,05,23,05,37,13.30
2018,05,23,05,38,13.30
2018,05,23,05,39,13.20
2018,05,23,05,40,13.20
2018,05,23,05,41,13.20
2018,05,23,05,42,13.10
2018,05,23,05,43,13.10
2018,05,23,05,44,13.10
2018,05,23,05,45,13.10
2018,05,23,05,46,13.10
2018,05,23,05,47,13.10
2018,05,23,05,48,13.10
2018,05,23,05,49,13.00
2018,05,23,05,50,13.00
2018,05,23,05,51,13.00
2018,05,23,05,52,13.00
2018,05,23,05,53,13.00
2018,05,23,05,54,12.90
2018,05,23,05,55,13.00
2018,05,23,05,56,13.00
2018,05,23,05,57,13.00
2018,05,23,05,58,13.00
2018,05,23,05,59,13.00
2018,05,23,06,00,13.00
2018,05,23,06,01,13.00
2018,05,23,06,02,13.00
2018,05,23,06,03,13.10
2018,05,23,06,04,13.10
2018,05,23,06,05,13.10
2018,05,23,06,06,13.20
2018,05,23,06,07,13.30
2018,05,23,06,08,13.30
2018,05,23,06,09,13.40
2018,05,23,06,10,13.50
2018,05,23,06,11,13.60
2018,05,23,06,12,13.60
2018,05,23,06,13,13.70
2018,05,23,06,14,13.80
2018,05,23,06,15,13.80
2018,05,23,06,16,13.80
2018,05,23,06,17,13.90
2018,05,23,06,18,13.90
2018,05,23,06,19,13.90
2018,05,23,06,20,14.00
2018,05,23,06,21,14.00
2018,05,23,06,22,14.00
2018,05,23,06,23,14.00
2018,05,23,06,24,14.10
2018,05,23,06,25,14.10
2018,05,23,06,26,14.10
2018,05,23,06,27,14.10
2018,05,23,06,28,14.20
2018,05,23,06,29,14.20
2018,05,23,06,30,14.20
2018,05,23,06,31,14.20
2018,05,23,06,32,14.20
2018,05,23,06,33,14.30
2018,05,23,06,34,14.30
2018,05,23,06,35,14.30
2018,05,23,06,36,14.30
2018,05,23,06,37,14.30
2018,05,23,06,38,14.30
2018,05,23,06,39,14.40
2018,05,23,06,40,14.40
2018,05,23,06,41,14.40
2018,05,23,06,42,14.50
2018,05,23,06,43,14.50
2018,05,23,06,44,14.50
2018,05,23,06,45,14.60
2018,05,23,06,46,14.60
2018,05,23,06,47,14.60
2018,05,23,06,48,14.70
2018,05,23,06,49,14.70
2018,05,23,06,50,14.80
2018,05,23,06,51,14.80
2018,05,23,06,52,14.80
2018,05,23,06,53,14.80
2018,05,23,06,54,14.90
2018,05,23,06,55,14.90
2018,05,23,06,56,14.90
2018,05,23,06,57,14.90
2018,05,23,06,58,15.00
2018,05,23,06,59,15.00
2018,05,23,07,00,15.00
2018,05,23,07,01,15.10
2018,05,23,07,02,15.10
2018,05,23,07,03,15.10
2018,05,23,07,04,15.10
2018,05,23,07,05,15.20
2018,05,23,07,06,15.20
2018,05,23,07,07,15.20
2018,05,23,07,08,15.20
2018,05,23,07,09,15.30
2018,05,23,07,10,15.30
2018,05,23,07,11,15.30
2018,05,23,07,12,15.30
2018,05,23,07,13,15.30
2018,05,23,07,14,15.30
2018,05,23,07,15,15.40
2018,05,23,07,16,15.40
2018,05,23,07,17,15.40
2018,05,23,07,18,15.40
2018,05,23,07,19,15.40
2018,05,23,07,20,15.40
2018,05,23,07,21,15.50
2018,05,23,07,22,15.50
2018,05,23,07,23,15.60
2018,05,23,07,24,15.60
2018,05,23,07,25,15.60
2018,05,23,07,26,15.70
2018,05,23,07,27,15.70
2018,05,23,07,28,15.70
2018,05,23,07,29,15.80
2018,05,23,07,30,15.80
2018,05,23,07,31,15.80
2018,05,23,07,32,15.80
2018,05,23,07,33,15.80
2018,05,23,07,34,15.80
2018,05,23,07,35,15.80
2018,05,23,07,36,15.80
2018,05,23,07,37,15.90
2018,05,23,07,38,15.90
2018,05,23,07,39,16.00
2018,05,23,07,40,16.00
2018,05,23,07,41,16.10
2018,05,23,07,42,16.10
2018,05,23,07,43,16.10
2018,05,23,07,44,16.20
2018,05,23,07,45,16.20
2018,05,23,07,46,16.30
2018,05,23,07,47,16.30
2018,05,23,07,48,16.30
2018,05,23,07,49,16.40
2018,05,23,07,50,16.40
2018,05,23,07,51,16.40
2018,05,23,07,52,16.40
2018,05,23,07,53,16.40
2018,05,23,07,54,16.40
2018,05,23,07,55,16.50
2018,05,23,07,56,16.50
2018,05,23,07,57,16.50
2018,05,23,07,58,16.50
2018,05,23,07,59,16.50
2018,05,23,08,00,16.50
2018,05,23,08,01,16.60
2018,05,23,08,02,16.60
2018,05,23,08,03,16.60
2018,05,23,08,04,16.70
2018,05,23,08,05,16.70
2018,05,23,08,06,16.70
2018,05,23,08,07,16.70
2018,05,23,08,08,16.80
2018,05,23,08,09,16.80
2018,05,23,08,10,16.80
2018,05,23,08,11,16.80
2018,05,23,08,12,16.80
2018,05,23,08,13,16.90
2018,05,23,08,14,16.90
2018,05,23,08,15,16.90
2018,05,23,08,16,16.90
2018,05,23,08,17,17.00
2018,05,23,08,18,17.10
2018,05,23,08,19,17.10
2018,05,23,08,20,17.10
2018,05,23,08,21,17.10
2018,05,23,08,22,17.10
2018,05,23,08,23,17.10
2018,05,23,08,24,17.20
2018,05,23,08,25,17.20
2018,05,23,08,26,17.20
2018,05,23,08,27,17.30
2018,05,23,08,28,17.30
2018,05,23,08,29,17.40
2018,05,23,08,30,17.40
2018,05,23,08,31,17.40
2018,05,23,08,32,17.40
2018,05,23,08,33,17.40
2018,05,23,08,34,17.50
2018,05,23,08,35,17.60
2018,05,23,08,36,17.60
2018,05,23,08,37,17.60
2018,05,23,08,38,17.70
2018,05,23,08,39,17.70
2018,05,23,08,40,17.80
2018,05,23,08,41,17.80
2018,05,23,08,42,17.90
2018,05,23,08,43,17.90
2018,05,23,08,44,18.00
2018,05,23,08,45,18.10
2018,05,23,08,46,18.10
2018,05,23,08,47,18.20
2018,05,23,08,48,18.30
2018,05,23,08,49,18.50
2018,05,23,08,50,18.60
2018,05,23,08,51,18.70
2018,05,23,08,52,18.70
2018,05,23,08,53,18.70
2018,05,23,08,54,18.70
2018,05,23,08,55,18.70
2018,05,23,08,56,18.70
2018,05,23,08,57,18.70
2018,05,23,08,58,18.60
2018,05,23,08,59,18.60
2018,05,23,09,00,18.60
2018,05,23,09,01,18.60
2018,05,23,09,02,18.60
2018,05,23,09,03,18.60
2018,05,23,09,04,18.60
2018,05,23,09,05,18.60
2018,05,23,09,06,18.70
2018,05,23,09,07,18.70
2018,05,23,09,08,18.70
2018,05,23,09,09,18.70
2018,05,23,09,10,18.80
2018,05,23,09,11,18.70
2018,05,23,09,12,18.70
2018,05,23,09,13,18.70
2018,05,23,09,14,18.70
2018,05,23,09,15,18.70
2018,05,23,09,16,18.70
2018,05,23,09,17,18.60
2018,05,23,09,18,18.60
2018,05,23,09,19,18.70
2018,05,23,09,20,18.70
2018,05,23,09,21,18.80
2018,05,23,09,22,18.90
2018,05,23,09,23,19.00
2018,05,23,09,24,19.10
2018,05,23,09,25,19.20
2018,05,23,09,26,19.30
2018,05,23,09,27,19.30
2018,05,23,09,28,19.40
2018,05,23,09,29,19.40
2018,05,23,09,30,19.50
2018,05,23,09,31,19.50
2018,05,23,09,32,19.60
2018,05,23,09,33,19.60
2018,05,23,09,34,19.60
2018,05,23,09,35,19.60
2018,05,23,09,36,19.60
2018,05,23,09,37,19.60
2018,05,23,09,38,19.60
2018,05,23,09,39,19.50
2018,05,23,09,40,19.50
2018,05,23,09,41,19.50
2018,05,23,09,42,19.40
2018,05,23,09,43,19.40
2018,05,23,09,44,19.30
2018,05,23,09,45,19.20
2018,05,23,09,46,19.10
2018,05,23,09,47,19.00
2018,05,23,09,48,18.90
2018,05,23,09,49,18.90
2018,05,23,09,50,18.80
2018,05,23,09,51,18.80
2018,05,23,09,52,18.90
2018,05,23,09,53,19.00
2018,05,23,09,54,19.10
2018,05,23,09,55,19.20
2018,05,23,09,56,19.30
2018,05,23,09,57,19.30
2018,05,23,09,58,19.30
2018,05,23,09,59,19.30
2018,05,23,10,00,19.30
2018,05,23,10,01,19.30
2018,05,23,10,02,19.40
2018,05,23,10,03,19.50
2018,05,23,10,04,19.60
2018,05,23,10,05,19.60
2018,05,23,10,06,19.60
2018,05,23,10,07,19.70
2018,05,23,10,08,19.70
2018,05,23,10,09,19.80
2018,05,23,10,10,19.80
2018,05,23,10,11,19.80
2018,05,23,10,12,19.80
2018,05,23,10,13,19.80
2018,05,23,10,14,19.90
2018,05,23,10,15,19.90
2018,05,23,10,16,20.00
2018,05,23,10,17,20.00
2018,05,23,10,18,20.00
2018,05,23,10,19,20.00
2018,05,23,10,20,20.00
2018,05,23,10,21,20.00
2018,05,23,10,22,20.00
2018,05,23,10,23,20.00
2018,05,23,10,24,20.00
2018,05,23,10,25,20.00
2018,05,23,10,26,20.10
2018,05,23,10,27,20.10
2018,05,23,10,28,20.10
2018,05,23,10,29,20.10
2018,05,23,10,30,20.10
2018,05,23,10,31,20.20
2018,05,23,10,32,20.20
2018,05,23,10,33,20.20
2018,05,23,10,34,20.30
2018,05,23,10,35,20.30
2018,05,23,10,36,20.40
2018,05,23,10,37,20.50
2018,05,23,10,38,20.60
2018,05,23,10,39,20.60
2018,05,23,10,40,20.60
2018,05,23,10,41,20.70
2018,05,23,10,42,20.70
2018,05,23,10,43,20.70
2018,05,23,10,44,20.80
2018,05,23,10,45,20.90
2018,05,23,10,46,20.90
2018,05,23,10,47,20.90
2018,05,23,10,48,21.00
2018,05,23,10,49,20.90
2018,05,23,10,50,20.90
2018,05,23,10,51,20.90
2018,05,23,10,52,20.90
2018,05,23,10,53,20.80
2018,05,23,10,54,20.80
2018,05,23,10,55,20.80
2018,05,23,10,56,20.90
2018,05,23,10,57,20.90
2018,05,23,10,58,20.90
2018,05,23,10,59,20.90
2018,05,23,11,00,20.90
2018,05,23,11,01,21.00
2018,05,23,11,02,21.00
2018,05,23,11,03,21.10
2018,05,23,11,04,21.10
2018,05,23,11,05,21.10
2018,05,23,11,06,21.10
2018,05,23,11,07,21.10
2018,05,23,11,08,21.20
2018,05,23,11,09,21.10
2018,05,23,11,10,21.10
2018,05,23,11,11,21.10
2018,05,23,11,12,21.10
2018,05,23,11,13,21.10
2018,05,23,11,14,21.00
2018,05,23,11,15,21.00
2018,05,23,11,16,21.00
2018,05,23,11,17,21.10
2018,05,23,11,18,21.10
2018,05,23,11,19,21.00
2018,05,23,11,20,21.00
2018,05,23,11,21,20.90
2018,05,23,11,22,20.80
2018,05,23,11,23,20.70
2018,05,23,11,24,20.60
2018,05,23,11,25,20.50
2018,05,23,11,26,20.40
2018,05,23,11,27,20.40
2018,05,23,11,28,20.30
2018,05,23,11,29,20.30
2018,05,23,11,30,20.30
2018,05,23,11,31,20.30
2018,05,23,11,32,20.30
2018,05,23,11,33,20.20
2018,05,23,11,34,20.30
2018,05,23,11,35,20.30
2018,05,23,11,36,20.30
2018,05,23,11,37,20.40
2018,05,23,11,38,20.40
2018,05,23,11,39,20.40
2018,05,23,11,40,20.40
2018,05,23,11,41,20.40
2018,05,23,11,42,20.40
2018,05,23,11,43,20.30
2018,05,23,11,44,20.30
2018,05,23,11,45,20.20
2018,05,23,11,46,20.10
2018,05,23,11,47,20.10
2018,05,23,11,48,20.10
2018,05,23,11,49,20.20
2018,05,23,11,50,20.30
2018,05,23,11,51,20.30
2018,05,23,11,52,20.30
2018,05,23,11,53,20.30
2018,05,23,11,54,20.40
2018,05,23,11,55,20.50
2018,05,23,11,56,20.50
2018,05,23,11,57,20.50
2018,05,23,11,58,20.50
2018,05,23,11,59,20.40
2018,05,23,12,00,20.30
2018,05,23,12,01,20.20
2018,05,23,12,02,20.10
2018,05,23,12,03,20.10
2018,05,23,12,04,20.00
2018,05,23,12,05,20.00
2018,05,23,12,06,20.00
2018,05,23,12,07,20.00
2018,05,23,12,08,20.00
2018,05,23,12,09,20.10
2018,05,23,12,10,20.20
2018,05,23,12,11,20.30
2018,05,23,12,12,20.40
2018,05,23,12,13,20.50
2018,05,23,12,14,20.70
2018,05,23,12,15,20.80
2018,05,23,12,16,20.80
2018,05,23,12,17,20.90
2018,05,23,12,18,21.00
2018,05,23,12,19,21.20
2018,05,23,12,20,21.30
2018,05,23,12,21,21.40
2018,05,23,12,22,21.50
2018,05,23,12,23,21.70
2018,05,23,12,24,21.80
2018,05,23,12,25,22.00
2018,05,23,12,26,22.10
2018,05,23,12,27,22.10
2018,05,23,12,28,22.10
2018,05,23,12,29,22.10
2018,05,23,12,30,22.00
2018,05,23,12,31,22.00
2018,05,23,12,32,21.90
2018,05,23,12,33,21.90
2018,05,23,12,34,21.80
2018,05,23,12,35,21.80
2018,05,23,12,36,21.80
2018,05,23,12,37,21.80
2018,05,23,12,38,21.80
2018,05,23,12,39,21.80
2018,05,23,12,40,21.80
2018,05,23,12,41,21.80
2018,05,23,12,42,21.90
2018,05,23,12,43,21.90
2018,05,23,12,44,21.90
2018,05,23,12,45,22.00
2018,05,23,12,46,22.10
2018,05,23,12,47,22.20
2018,05,23,12,48,22.20
2018,05,23,12,49,22.20
2018,05,23,12,50,22.20
2018,05,23,12,51,22.20
2018,05,23,12,52,22.30
2018,05,23,12,53,22.30
2018,05,23,12,54,22.40
2018,05,23,12,55,22.50
2018,05,23,12,56,22.60
2018,05,23,12,57,22.60
2018,05,23,12,58,22.60
2018,05,23,12,59,22.50
2018,05,23,13,00,22.40
2018,05,23,13,01,22.30
2018,05,23,13,02,22.30
2018,05,23,13,03,22.30
2018,05,23,13,04,22.30
2018,05,23,13,05,22.40
2018,05,23,13,06,22.50
2018,05,23,13,07,22.50
2018,05,23,13,08,22.60
2018,05,23,13,09,22.60
2018,05,23,13,10,22.60
2018,05,23,13,11,22.50
2018,05,23,13,12,22.50
2018,05,23,13,13,22.40
2018,05,23,13,14,22.50
2018,05,23,13,15,22.50
2018,05,23,13,16,22.60
2018,05,23,13,17,22.60
2018,05,23,13,18,22.70
2018,05,23,13,19,22.80
2018,05,23,13,20,22.90
2018,05,23,13,21,23.00
2018,05,23,13,22,23.10
2018,05,23,13,23,23.10
2018,05,23,13,24,23.10
2018,05,23,13,25,23.10
2018,05,23,13,26,23.10
2018,05,23,13,27,23.10
2018,05,23,13,28,23.10
2018,05,23,13,29,23.10
2018,05,23,13,30,23.10
2018,05,23,13,31,23.20
2018,05,23,13,32,23.30
2018,05,23,13,33,23.30
2018,05,23,13,34,23.20
2018,05,23,13,35,23.10
2018,05,23,13,36,22.90
2018,05,23,13,37,22.80
2018,05,23,13,38,22.90
2018,05,23,13,39,22.90
2018,05,23,13,40,22.90
2018,05,23,13,41,23.00
2018,05,23,13,42,23.00
2018,05,23,13,43,23.10
2018,05,23,13,44,23.10
2018,05,23,13,45,23.10
2018,05,23,13,46,23.00
2018,05,23,13,47,23.00
2018,05,23,13,48,23.00
2018,05,23,13,49,23.00
2018,05,23,13,50,23.00
2018,05,23,13,51,23.10
2018,05,23,13,52,23.10
2018,05,23,13,53,23.10
2018,05,23,13,54,23.10
2018,05,23,13,55,23.10
2018,05,23,13,56,23.10
2018,05,23,13,57,23.10
2018,05,23,13,58,23.10
2018,05,23,13,59,23.10
2018,05,23,14,00,23.10
2018,05,23,14,01,23.20
2018,05,23,14,02,23.20
2018,05,23,14,03,23.30
2018,05,23,14,04,23.30
2018,05,23,14,05,23.40
2018,05,23,14,06,23.40
2018,05,23,14,07,23.30
2018,05,23,14,08,23.30
2018,05,23,14,09,23.40
2018,05,23,14,10,23.50
2018,05,23,14,11,23.60
2018,05,23,14,12,23.60
2018,05,23,14,13,23.70
2018,05,23,14,14,23.80
2018,05,23,14,15,23.90
2018,05,23,14,16,23.90
2018,05,23,14,17,23.90
2018,05,23,14,18,23.90
2018,05,23,14,19,23.80
2018,05,23,14,20,23.80
2018,05,23,14,21,23.90
2018,05,23,14,22,24.00
2018,05,23,14,23,24.10
2018,05,23,14,24,24.10
2018,05,23,14,25,24.20
2018,05,23,14,26,24.20
2018,05,23,14,27,24.30
2018,05,23,14,28,24.30
2018,05,23,14,29,24.30
2018,05,23,14,30,24.20
2018,05,23,14,31,24.10
2018,05,23,14,32,24.10
2018,05,23,14,33,24.10
2018,05,23,14,34,24.10
2018,05,23,14,35,24.10
2018,05,23,14,36,24.10
2018,05,23,14,37,24.10
2018,05,23,14,38,24.10
2018,05,23,14,39,24.10
2018,05,23,14,40,24.10
2018,05,23,14,41,24.00
2018,05,23,14,42,24.00
2018,05,23,14,43,24.00
2018,05,23,14,44,24.00
2018,05,23,14,45,24.10
2018,05,23,14,46,24.10
2018,05,23,14,47,24.10
2018,05,23,14,48,24.10
2018,05,23,14,49,24.10
2018,05,23,14,50,24.10
2018,05,23,14,51,24.10
2018,05,23,14,52,24.00
2018,05,23,14,53,24.00
2018,05,23,14,54,23.90
2018,05,23,14,55,23.80
2018,05,23,14,56,23.80
2018,05,23,14,57,23.90
2018,05,23,14,58,23.90
2018,05,23,14,59,23.80
2018,05,23,15,00,23.80
2018,05,23,15,01,23.80
2018,05,23,15,02,23.80
2018,05,23,15,03,23.90
2018,05,23,15,04,23.90
2018,05,23,15,05,23.90
2018,05,23,15,06,24.00
2018,05,23,15,07,24.00
2018,05,23,15,08,24.10
2018,05,23,15,09,24.10
2018,05,23,15,10,24.20
2018,05,23,15,11,24.30
2018,05,23,15,12,24.40
2018,05,23,15,13,24.50
2018,05,23,15,14,24.50
2018,05,23,15,15,24.60
2018,05,23,15,16,24.60
2018,05,23,15,17,24.60
2018,05,23,15,18,24.50
2018,05,23,15,19,24.50
2018,05,23,15,20,24.40
2018,05,23,15,21,24.40
2018,05,23,15,22,24.40
2018,05,23,15,23,24.50
2018,05,23,15,24,24.50
2018,05,23,15,25,24.50
2018,05,23,15,26,24.40
2018,05,23,15,27,24.50
2018,05,23,15,28,24.60
2018,05,23,15,29,24.60
2018,05,23,15,30,24.60
2018,05,23,15,31,24.60
2018,05,23,15,32,24.50
2018,05,23,15,33,24.40
2018,05,23,15,34,24.40
2018,05,23,15,35,24.40
2018,05,23,15,36,24.40
2018,05,23,15,37,24.40
2018,05,23,15,38,24.40
2018,05,23,15,39,24.50
2018,05,23,15,40,24.50
2018,05,23,15,41,24.60
2018,05,23,15,42,24.60
2018,05,23,15,43,24.60
2018,05,23,15,44,24.60
2018,05,23,15,45,24.60
2018,05,23,15,46,24.60
2018,05,23,15,47,24.70
2018,05,23,15,48,24.70
2018,05,23,15,49,24.70
2018,05,23,15,50,24.70
2018,05,23,15,51,24.80
2018,05,23,15,52,24.80
2018,05,23,15,53,24.80
2018,05,23,15,54,24.90
2018,05,23,15,55,24.90
2018,05,23,15,56,24.90
2018,05,23,15,57,25.00
2018,05,23,15,58,25.00
2018,05,23,15,59,25.00
2018,05,23,16,00,25.00
2018,05,23,16,01,25.10
2018,05,23,16,02,25.20
2018,05,23,16,03,25.30
2018,05,23,16,04,25.30
2018,05,23,16,05,25.40
2018,05,23,16,06,25.40
2018,05,23,16,07,25.50
2018,05,23,16,08,25.60
2018,05,23,16,09,25.60
2018,05,23,16,10,25.60
2018,05,23,16,11,25.70
2018,05,23,16,12,25.70
2018,05,23,16,13,25.70
2018,05,23,16,14,25.70
2018,05,23,16,15,25.70
2018,05,23,16,16,25.70
2018,05,23,16,17,25.70
2018,05,23,16,18,25.70
2018,05,23,16,19,25.70
2018,05,23,16,20,25.70
2018,05,23,16,21,25.70
2018,05,23,16,22,25.80
2018,05,23,16,23,25.80
2018,05,23,16,24,26.00
2018,05,23,16,25,26.10
2018,05,23,16,26,26.30
2018,05,23,16,27,26.30
2018,05,23,16,28,26.30
2018,05,23,16,29,26.20
2018,05,23,16,30,26.20
2018,05,23,16,31,26.20
2018,05,23,16,32,26.20
2018,05,23,16,33,26.10
2018,05,23,16,34,26.10
2018,05,23,16,35,26.10
2018,05,23,16,36,26.00
2018,05,23,16,37,26.00
2018,05,23,16,38,26.10
2018,05,23,16,39,26.10
2018,05,23,16,40,26.10
2018,05,23,16,41,26.10
2018,05,23,16,42,26.10
2018,05,23,16,43,26.00
2018,05,23,16,44,26.00
2018,05,23,16,45,26.00
2018,05,23,16,46,26.00
2018,05,23,16,47,26.00
2018,05,23,16,48,26.00
2018,05,23,16,49,25.90
2018,05,23,16,50,25.90
2018,05,23,16,51,25.90
2018,05,23,16,52,25.90
2018,05,23,16,53,25.90
2018,05,23,16,54,25.90
2018,05,23,16,55,25.90
2018,05,23,16,56,26.00
2018,05,23,16,57,26.10
2018,05,23,16,58,26.10
2018,05,23,16,59,26.10
2018,05,23,17,00,26.10
2018,05,23,17,01,26.00
2018,05,23,17,02,26.00
2018,05,23,17,03,26.10
2018,05,23,17,04,26.10
2018,05,23,17,05,26.10
2018,05,23,17,06,26.20
2018,05,23,17,07,26.20
2018,05,23,17,08,26.20
2018,05,23,17,09,26.20
2018,05,23,17,10,26.20
2018,05,23,17,11,26.30
2018,05,23,17,12,26.30
2018,05,23,17,13,26.30
2018,05,23,17,14,26.30
2018,05,23,17,15,26.30
2018,05,23,17,16,26.30
2018,05,23,17,17,26.40
2018,05,23,17,18,26.40
2018,05,23,17,19,26.40